Weather History for Spartanburg, SC

Change the Weather History Date:

Friday, December 16, 2011

  Actual Average (KGSP) Record (KGSP)
Temperature  
Mean Temperature 61 °F 44 °F  
Max Temperature 69 °F 54 °F 72 °F (1971)
Min Temperature 53 °F 34 °F 12 °F (1898)
Degree Days  
Heating Degree Days 4 21  
Month to date heating degree days 315  
Since 1 July heating degree days 868  
Cooling Degree Days 0 0  
Month to date cooling degree days 0  
Year to date cooling degree days 1715  
Growing Degree Days 11 (Base 50)    
Moisture  
Dew Point 58 °F    
Average Humidity 90    
Maximum Humidity 100    
Minimum Humidity 68    
Precipitation  
Precipitation 0.04 in 0.12 in 2.11 in (1918)
Month to date precipitation 2.22  
Year to date precipitation 45.30  
Snow  
Snow 0.00 in 0.00 in 1.00 in (1904)
Month to date snowfall 0.1  
Since 1 July snowfall 0.2  
Snow Depth -    
Sea Level Pressure  
Sea Level Pressure 30.12 in    
Wind  
Wind Speed 5 mph (WSW)    
Max Wind Speed 12 mph    
Max Gust Speed 18 mph    
Visibility 9 miles    
Events Rain    
T = Trace of Precipitation, MM = Missing Value Source: NWS Daily Summary

Daily Weather History Graph

Daily Weather History Graph

Search for Another Location

Airport:

Trip Planner

Search our weather history database for the weather conditions in past years. The results will help you decide how hot, cold, wet, or windy it might be!

Date:

Astronomy

Dec. 16, 2011 Rise Set
Actual Time 7:28 AM EST 5:18 PM EST
Civil Twilight 7:00 AM EST 5:46 PM EST
Nautical Twilight 6:28 AM EST 6:17 PM EST
Astronomical Twilight 5:58 AM EST 6:48 PM EST
Moon 11:36 PM EST (12/16) 11:26 AM EST (12/16)
Length of Visible Light 10h 45m
Length of Day
9h 49m
Waning Gibbous, 65% of the Moon is Illuminated
Dec 16
Waning Gibbous
Dec 17
Last Quarter
Dec 24
New
Jan 1
First Quarter
Jan 9
Full

Hourly Weather History & Observations

Time (EST) Temp. Dew Point Humidity Pressure Visibility Wind Dir Wind Speed Gust Speed Precip Events Conditions
12:15 AM 60.8 °F 55.4 °F 82% 30.15 in 10.0 mi SW 3.5 mph - N/A   Clear
12:35 AM 57.2 °F 55.4 °F 94% 30.14 in 10.0 mi WSW 5.8 mph - N/A   Clear
12:55 AM 59.0 °F 55.4 °F 88% 30.13 in 10.0 mi WSW 8.1 mph - N/A   Clear
1:15 AM 60.8 °F 57.2 °F 88% 30.13 in 10.0 mi WSW 10.4 mph 18.4 mph N/A   Clear
1:55 AM 60.8 °F 57.2 °F 88% 30.13 in 10.0 mi WSW 9.2 mph - N/A   Clear
2:15 AM 60.8 °F 57.2 °F 88% 30.13 in 10.0 mi WSW 9.2 mph - N/A   Clear
2:35 AM 60.8 °F 57.2 °F 88% 30.13 in 10.0 mi SW 9.2 mph - N/A   Clear
2:55 AM 60.8 °F 57.2 °F 88% 30.13 in 10.0 mi WSW 8.1 mph - N/A   Clear
3:15 AM 59.0 °F 55.4 °F 88% 30.13 in 10.0 mi West 4.6 mph - N/A   Clear
3:35 AM 59.0 °F 55.4 °F 88% 30.14 in 10.0 mi Calm Calm - N/A   Clear
3:55 AM 59.0 °F 57.2 °F 94% 30.14 in 10.0 mi Calm Calm - N/A   Clear
4:15 AM 55.4 °F 55.4 °F 100% 30.13 in 10.0 mi Calm Calm - N/A   Clear
4:35 AM 53.6 °F 53.6 °F 100% 30.13 in 7.0 mi Calm Calm - N/A   Clear
4:55 AM 53.6 °F 53.6 °F 100% 30.13 in 10.0 mi Calm Calm - N/A   Clear
5:15 AM 53.6 °F 53.6 °F 100% 30.12 in 7.0 mi Calm Calm - N/A   Clear
5:35 AM 53.6 °F 53.6 °F 100% 30.12 in 7.0 mi Calm Calm - N/A   Clear
5:55 AM 53.6 °F 53.6 °F 100% 30.12 in 10.0 mi SSW 3.5 mph - N/A   Clear
6:15 AM 53.6 °F 53.6 °F 100% 30.12 in 10.0 mi Calm Calm - N/A   Clear
6:35 AM 53.6 °F 53.6 °F 100% 30.13 in 7.0 mi SW 3.5 mph - N/A   Clear
7:15 AM 55.4 °F 55.4 °F 100% 30.13 in 10.0 mi SW 4.6 mph - N/A   Scattered Clouds
7:35 AM 55.4 °F 55.4 °F 100% 30.14 in 10.0 mi WSW 4.6 mph - N/A   Scattered Clouds
7:55 AM 53.6 °F 53.6 °F 100% 30.15 in 10.0 mi West 5.8 mph - N/A   Clear
8:15 AM 57.2 °F 57.2 °F 100% 30.15 in 10.0 mi West 5.8 mph - N/A   Mostly Cloudy
8:35 AM 59.0 °F 59.0 °F 100% 30.15 in 10.0 mi West 3.5 mph - N/A   Mostly Cloudy
8:55 AM 59.0 °F 59.0 °F 100% 30.15 in 10.0 mi West 5.8 mph - N/A   Scattered Clouds
9:35 AM 62.6 °F 59.0 °F 88% 30.16 in 10.0 mi WSW 8.1 mph - N/A   Scattered Clouds
9:55 AM 64.4 °F 60.8 °F 88% 30.16 in 10.0 mi WSW 8.1 mph - N/A   Clear
10:15 AM 64.4 °F 60.8 °F 88% 30.16 in 10.0 mi SW 9.2 mph - N/A   Scattered Clouds
10:35 AM 68.0 °F 60.8 °F 78% 30.17 in 7.0 mi WSW 6.9 mph - N/A   Scattered Clouds
10:55 AM 66.2 °F 60.8 °F 83% 30.17 in 10.0 mi WSW 8.1 mph - N/A   Mostly Cloudy
11:15 AM 68.0 °F 60.8 °F 78% 30.17 in 10.0 mi SW 8.1 mph - N/A   Overcast
11:35 AM 68.0 °F 60.8 °F 78% 30.16 in 10.0 mi WSW 8.1 mph - N/A   Overcast
11:55 AM 68.0 °F 60.8 °F 78% 30.15 in 10.0 mi WSW 8.1 mph - N/A   Overcast
12:15 PM 68.0 °F 60.8 °F 78% 30.14 in 7.0 mi SW 9.2 mph - N/A   Overcast
12:35 PM 69.8 °F 60.8 °F 73% 30.13 in 7.0 mi SW 6.9 mph - N/A   Overcast
12:55 PM 68.0 °F 60.8 °F 78% 30.13 in 7.0 mi WSW 6.9 mph - N/A   Overcast
1:15 PM 69.8 °F 60.8 °F 73% 30.12 in 7.0 mi WSW 5.8 mph - N/A   Overcast
1:35 PM 69.8 °F 59.0 °F 68% 30.11 in 10.0 mi WSW 9.2 mph - N/A   Mostly Cloudy
1:55 PM 69.8 °F 59.0 °F 68% 30.10 in 7.0 mi WSW 10.4 mph 16.1 mph N/A   Mostly Cloudy
2:15 PM 69.8 °F 59.0 °F 68% 30.10 in 7.0 mi WSW 8.1 mph - N/A   Overcast
2:35 PM 69.8 °F 59.0 °F 68% 30.09 in 7.0 mi WSW 5.8 mph - N/A   Overcast
2:55 PM 69.8 °F 59.0 °F 68% 30.08 in 7.0 mi SW 6.9 mph - N/A   Overcast
3:15 PM 69.8 °F 59.0 °F 68% 30.08 in 10.0 mi WSW 6.9 mph - N/A   Mostly Cloudy
3:35 PM 69.8 °F 59.0 °F 68% 30.08 in 7.0 mi West 8.1 mph - N/A   Overcast
4:15 PM 64.4 °F 60.8 °F 88% 30.09 in 10.0 mi North 11.5 mph - N/A   Overcast
4:35 PM 60.8 °F 59.0 °F 94% 30.11 in 10.0 mi North 11.5 mph 18.4 mph N/A Rain Light Rain
4:55 PM 59.0 °F 59.0 °F 100% 30.08 in 7.0 mi NE 5.8 mph - 0.01 in Rain Light Rain
5:15 PM 59.0 °F 59.0 °F 100% 30.08 in 7.0 mi Calm Calm - N/A   Mostly Cloudy
5:35 PM 57.2 °F 57.2 °F 100% 30.09 in 10.0 mi North 3.5 mph - N/A   Scattered Clouds
5:55 PM 59.0 °F 59.0 °F 100% 30.10 in 10.0 mi NNE 3.5 mph - N/A   Mostly Cloudy
6:15 PM 57.2 °F 57.2 °F 100% 30.10 in 10.0 mi NE 3.5 mph - N/A   Overcast
6:35 PM 57.2 °F 57.2 °F 100% 30.09 in 10.0 mi Calm Calm - N/A   Overcast
6:55 PM 57.2 °F 57.2 °F 100% 30.09 in 10.0 mi Calm Calm - N/A   Overcast
7:15 PM 57.2 °F 57.2 °F 100% 30.09 in 10.0 mi East 3.5 mph - N/A   Mostly Cloudy
7:35 PM 57.2 °F 57.2 °F 100% 30.10 in 10.0 mi Calm Calm - N/A Rain Light Rain
7:55 PM 57.2 °F 57.2 °F 100% 30.10 in 10.0 mi Calm Calm - N/A   Overcast
8:35 PM 57.2 °F 57.2 °F 100% 30.11 in 10.0 mi Calm Calm - N/A   Overcast
8:55 PM 57.2 °F 57.2 °F 100% 30.11 in 7.0 mi Calm Calm - 0.01 in Rain Rain
9:15 PM 57.2 °F 57.2 °F 100% 30.11 in 4.0 mi Calm Calm - 0.01 in   Drizzle
9:35 PM 57.2 °F 57.2 °F 100% 30.10 in 5.0 mi Calm Calm - 0.02 in   Overcast
9:55 PM 57.2 °F 57.2 °F 100% 30.12 in 5.0 mi North 9.2 mph - 0.02 in   Overcast
10:15 PM 55.4 °F 55.4 °F 100% 30.12 in 7.0 mi North 8.1 mph - N/A   Overcast
10:55 PM 55.4 °F 55.4 °F 100% 30.13 in 10.0 mi NNE 6.9 mph - N/A   Overcast
11:15 PM 55.4 °F 55.4 °F 100% 30.12 in 10.0 mi NE 3.5 mph - N/A   Mostly Cloudy
11:35 PM 55.4 °F 55.4 °F 100% 30.13 in 10.0 mi NNE 5.8 mph - N/A   Overcast
11:55 PM 55.4 °F 55.4 °F 100% 30.13 in 10.0 mi NNE 5.8 mph - N/A   Overcast